Location: Newark
(35.2672°N, 80.7344°W)
Time: 19:09:54
(UTC+00:00)

Vanguard 2 Rocket - Pass Details

Date: 27 January 2020
Orbit: 554 x 3327 km, 32.9° (Epoch: 19 February)

Event Time Altitude Azimuth Distance (km) Brightness Sun altitude
Rises 11:54:57 0° 268° (W) 2,889 - -6.8°
Exits shadow 11:56:10 - 267° (W) 2,395 8.5 -6.5°
Reaches altitude 10° 11:56:53 10° 266° (W) 2,113 8.2 -6.4°
Maximum altitude 12:01:36 70° 183° (S) 935 7.1 -5.5°
Drops below altitude 10° 12:09:23 10° 101° (E) 3,407 11.7 -4.0°
Sets 12:13:18 0° 100° (E) 4,843 12.9 -3.2°
